This is the latest recevied weather packets stored in our database for station/object WP4PW. If no packets are shown the sender has not sent any weather packets the latest 10 day(s).
| Time | Temp. | Humidity | Pressure | Rain* | Wind** | Luminosity | Snow |
|---|---|---|---|---|---|---|---|
| 1778025267 | 27.22° C | 85% | 1021.4 hPa | 0 mm | - | 0 W/m² | - |
| 1778024964 | 27.22° C | 85% | 1021.5 hPa | 0 mm | - | 0 W/m² | - |
| 1778024661 | 27.22° C | 85% | 1021.5 hPa | 0 mm | - | 0 W/m² | - |
| 1778024358 | 27.22° C | 85% | 1021.5 hPa | 0 mm | - | 0 W/m² | - |
| 1778024056 | 27.78° C | 85% | 1021.5 hPa | 0 mm | - | 0 W/m² | - |
| 1778023753 | 27.78° C | 85% | 1021.5 hPa | 0 mm | - | 0 W/m² | - |
| 1778023451 | 27.78° C | 84% | 1021.5 hPa | 0 mm | - | 0 W/m² | - |
| 1778023147 | 27.78° C | 83% | 1021.5 hPa | 0 mm | - | 0 W/m² | - |
| 1778022845 | 27.78° C | 83% | 1021.3 hPa | 0 mm | - | 0 W/m² | - |
| 1778022543 | 27.78° C | 83% | 1021.3 hPa | 0 mm | - | 0 W/m² | - |
| 1778022240 | 28.33° C | 83% | 1021.3 hPa | 0 mm | - | 0 W/m² | - |
| 1778021936 | 27.78° C | 82% | 1021.3 hPa | 0 mm | - | 0 W/m² | - |
| 1778021634 | 28.33° C | 82% | 1021.3 hPa | 0 mm | - | 1 W/m² | - |
| 1778021329 | 28.33° C | 81% | 1021.3 hPa | 0 mm | - | 2 W/m² | - |
| 1778021027 | 28.33° C | 81% | 1021.3 hPa | 0 mm | - | 4 W/m² | - |
| 1778020724 | 28.33° C | 81% | 1021.3 hPa | 0 mm | - | 7 W/m² | - |
| 1778020421 | 28.33° C | 81% | 1021 hPa | 0 mm | - | 10 W/m² | - |
| 1778020116 | 28.33° C | 80% | 1020.8 hPa | 0 mm | - | 14 W/m² | - |
| 1778019813 | 28.33° C | 80% | 1020.9 hPa | 0 mm | - | 19 W/m² | - |
| 1778019510 | 28.89° C | 80% | 1020.9 hPa | 0 mm | - | 25 W/m² | - |
| 1778019207 | 28.89° C | 79% | 1020.6 hPa | 0 mm | - | 44 W/m² | - |
| 1778018904 | 28.89° C | 78% | 1020.8 hPa | 0 mm | - | 48 W/m² | - |
| 1778018601 | 28.89° C | 78% | 1020.8 hPa | 0 mm | - | 48 W/m² | - |
| 1778018299 | 28.89° C | 77% | 1020.7 hPa | 0 mm | - | 40 W/m² | - |
| 1778017996 | 28.89° C | 77% | 1020.5 hPa | 0 mm | - | 44 W/m² | - |
* Rain latest hour (hover to see other rain measurements)
** Current wind speed in m/s (hover to see current wind gust speed)